Location: Partizánske
(48.6285°N, 18.3769°E)
Time: 23:55:00
(UTC+02:00)

Tiros 1 despin weight - All Passes

Search period start: 24 June 2022 00:00
Search period end: 04 July 2022 00:00
Orbit: 591 x 639 km, 48.2° (Epoch: 24 June)

Date Brightness Start Highest point End Pass type
(mag) Time Alt. Az. Time Alt. Az. Time Alt. Az.
24 Jun - 06:53:41 10° S 06:56:43 17° SE 06:59:45 10° E daylight
24 Jun - 08:33:00 10° SW 08:37:32 52° SSE 08:42:06 10° E daylight
24 Jun - 10:14:14 10° W 10:18:57 86° S 10:23:38 10° E daylight
24 Jun - 11:55:47 10° W 12:00:26 66° SSW 12:05:03 10° ESE daylight
24 Jun - 13:37:40 10° W 13:41:28 25° SW 13:45:12 10° SSE daylight
25 Jun - 07:08:04 10° SSW 07:12:00 28° SE 07:15:58 10° E daylight
25 Jun - 08:48:26 10° WSW 08:53:06 69° SSE 08:57:45 10° E daylight
25 Jun - 10:29:54 10° W 10:34:37 85° S 10:39:17 10° E daylight
25 Jun - 12:11:28 10° W 12:15:58 48° SSW 12:20:27 10° SE daylight
25 Jun - 13:54:02 10° WSW 13:56:44 15° SW 13:59:23 10° S daylight
26 Jun - 05:45:00 10° SSE 05:46:47 12° SE 05:48:35 10° ESE daylight
26 Jun - 07:23:02 10° SW 07:27:25 41° SSE 07:31:50 10° E daylight
26 Jun - 09:04:02 10° W 09:08:43 82° S 09:13:25 10° E daylight
26 Jun - 10:45:33 10° W 10:50:14 75° SSW 10:54:55 10° ESE daylight
26 Jun - 12:27:14 10° W 12:31:26 33° SSW 12:35:34 10° SSE daylight
27 Jun - 05:58:35 10° S 06:02:00 21° SE 06:05:27 10° E daylight
27 Jun - 07:38:20 10° WSW 07:42:55 58° SSE 07:47:31 10° E daylight
27 Jun - 09:19:40 10° W 09:24:22 87° S 09:29:04 10° E daylight
27 Jun - 11:01:12 10° W 11:05:50 59° SSW 11:10:24 10° ESE daylight
27 Jun - 12:43:15 10° W 12:46:46 21° SW 12:50:14 10° S daylight
28 Jun - 06:13:13 10° SSW 06:17:20 32° SSE 06:21:29 10° E daylight
28 Jun - 07:53:50 10° WSW 07:58:30 75° SSE 08:03:11 10° E daylight
28 Jun - 09:35:19 10° W 09:40:01 82° S 09:44:43 10° E daylight
28 Jun - 11:16:54 10° W 11:21:20 42° SSW 11:25:44 10° SE daylight
28 Jun - 13:00:02 10° WSW 13:01:59 12° SW 13:03:56 10° SSW daylight
29 Jun - 04:49:28 10° S 04:52:02 15° SE 04:54:37 10° ESE daylight
29 Jun - 06:28:19 10° SW 06:32:46 47° SSE 06:37:15 10° E daylight
29 Jun - 08:09:27 10° W 08:14:07 85° S 08:18:50 10° E daylight
29 Jun - 09:50:58 10° W 09:55:38 70° SSW 10:00:17 10° ESE daylight
29 Jun - 11:32:44 10° W 11:36:44 28° SW 11:40:42 10° SSE daylight
30 Jun - 05:03:35 10° SSW 05:07:17 24° SE 05:11:02 10° E daylight
30 Jun - 06:43:41 10° WSW 06:48:17 65° SSE 06:52:56 10° E daylight
30 Jun - 08:25:05 10° W 08:29:46 86° S 08:34:29 10° E daylight
30 Jun - 10:06:38 10° W 10:11:11 53° SSW 10:15:45 10° SE daylight
30 Jun - 11:48:55 10° W 11:52:01 18° SW 11:55:08 10° S daylight
01 Jul - 05:18:24 10° SW 05:22:39 37° SSE 05:26:56 10° E daylight
01 Jul - 06:59:14 10° WSW 07:03:53 79° S 07:08:35 10° E daylight
01 Jul - 08:40:44 10° W 08:45:25 79° S 08:50:06 10° ESE daylight
01 Jul - 10:22:21 10° W 10:26:40 37° SSW 10:30:56 10° SE daylight
02 Jul - 03:54:13 10° S 03:57:17 18° SE 04:00:22 10° E visible
02 Jul - 05:33:37 10° SW 05:38:06 53° SSE 05:42:39 10° E daylight
02 Jul - 07:14:51 10° W 07:19:31 86° S 07:24:13 10° E daylight
02 Jul - 08:56:22 10° W 09:01:00 64° SSW 09:05:38 10° ESE daylight
02 Jul - 10:38:16 10° W 10:42:01 24° SW 10:45:45 10° SSE daylight
03 Jul - 04:08:38 10° SSW 04:12:33 28° SSE 04:16:32 10° E visible
03 Jul - 05:49:03 10° WSW 05:53:39 70° SSE 05:58:19 10° E daylight
03 Jul - 07:30:29 10° W 07:35:09 84° S 07:39:52 10° E daylight
03 Jul - 09:12:02 10° W 09:16:31 47° SSW 09:21:00 10° SE daylight
03 Jul - 10:54:41 10° WSW 10:57:16 15° SW 10:59:50 10° S daylight
